Flag Weather past 2 weeks in San Jose, California, U.S.A.

Now
57 °F

Passing clouds.


Feels Like: 56 °F
Forecast: 49 / 59 °F
Wind: 7 mph from Northwest

Location: San Jose International Airport

Current Time: Nov 28, 2014 at 5:43:47 PM

Latest Report: Nov 28, 2014 at 4:53 PM


Visibility: 10 mi

Pressure: 29.89 "Hg

Humidity: 74%

Dew point: 49 °F

Location of San JoseLocation

Historic Weather in San Jose — Graph

°F

San Jose temperature yesterday

Maximum temperature yesterday: 69 °F (at 2:53 PM)
Minimum temperature yesterday: 45 °F (at 6:53 AM)
Average temperature yesterday: 54 °F

Past Weeks' High & Low Weather Summary

 TemperatureHumidityPressure
High70 °F (Nov 26, 2:53 PM)100% (Nov 19, 9:53 PM)30.46 "Hg (Nov 19, 9:53 PM)
Low38 °F (Nov 24, 6:53 AM)14% (Nov 16, 12:53 PM)29.90 "Hg (Nov 28, 3:53 PM)
Average55 °F69%30.16 "Hg
* Reported Nov 13 3:53 PM — Nov 28 3:53 PM, San Jose, Weather by CustomWeather, © 2014

Note: Actual official high and low records may vary slightly from our data, if they occured in-between our weather recording intervals... More about our weather records

Advertising

San Jose weather history for previous 24 hours

 ConditionsComfort  
Time TempWeatherWind HumidityBarometerVisibility
3:53 PM
Nov 28
61 °FPassing clouds.13 mph65%29.90 "Hg10 mi
2:53 PM65 °FScattered clouds.7 mph39%29.90 "Hg10 mi
1:53 PM63 °FScattered clouds.3 mph47%29.91 "Hg8 mi
12:53 PM59 °FHaze.No wind56%29.95 "Hg6 mi
11:53 AM56 °FScattered clouds.3 mph65%29.99 "Hg3 mi
10:53 AM53 °FHaze.3 mph74%30.02 "Hg3 mi
9:53 AM49 °FFog.3 mph86%30.03 "Hg3 mi
8:53 AM46 °FBroken clouds.7 mph79%30.04 "Hg4 mi
7:53 AM43 °FPartly sunny.3 mph82%30.05 "Hg3 mi
6:53 AM40 °FFog.3 mph86%30.03 "Hg1 mi
5:53 AM39 °FPassing clouds.No wind82%30.02 "Hg10 mi
4:53 AM41 °FClear.No wind80%30.01 "Hg10 mi
3:53 AM43 °FPassing clouds.No wind76%30.02 "Hg10 mi
2:53 AM45 °FClear.No wind71%30.04 "Hg10 mi
1:53 AM44 °FClear.3 mph76%30.05 "Hg10 mi
12:53 AM46 °FPassing clouds.3 mph79%30.07 "Hg10 mi
11:53 PM
Nov 27
47 °FClear.No wind80%30.07 "Hg10 mi
10:53 PM48 °FClear.No wind77%30.07 "Hg10 mi
8:53 PM52 °FClear.No wind75%30.06 "Hg8 mi
7:53 PM52 °FPassing clouds.No wind75%30.06 "Hg8 mi
6:53 PM54 °FPassing clouds.No wind69%30.05 "Hg8 mi
5:53 PM58 °FPassing clouds.No wind60%30.05 "Hg9 mi
Weather by CustomWeather, © 2014

See weather overviewHow to use our weather pages